Time,TemperatureF,DewpointF,PressureIn,WindDirection,WindDirectionDegrees,WindSpeedMPH,WindSpeedGustMPH,Humidity,HourlyPrecipIn,Conditions,Clouds,dailyrainin,SoftwareType,DateUTC
2013-05-07 00:03:00,74.0,61.0,30.00,North,0,0.0,0.0,63,-99.99,,,-99.99,,2013-05-07 04:03:00,
2013-05-07 00:12:00,74.0,61.0,30.00,North,0,0.0,0.0,63,-99.99,,,-99.99,,2013-05-07 04:12:00,
2013-05-07 00:23:00,74.0,62.0,30.00,North,0,0.0,0.0,67,-99.99,,,-99.99,,2013-05-07 04:23:00,
2013-05-07 00:33:00,73.0,62.0,30.00,North,0,0.0,0.0,69,-99.99,,,-99.99,,2013-05-07 04:33:00,
2013-05-07 00:42:00,73.0,62.0,30.00,North,0,0.0,0.0,69,-99.99,,,-99.99,,2013-05-07 04:42:00,
2013-05-07 00:53:00,73.0,61.0,30.00,North,0,0.0,0.0,67,-99.99,,,-99.99,,2013-05-07 04:53:00,
2013-05-07 01:02:00,72.0,62.0,30.00,North,0,0.0,0.0,70,-99.99,,,-99.99,,2013-05-07 05:02:00,
2013-05-07 01:12:00,72.0,62.0,30.00,North,0,0.0,0.0,70,-99.99,,,-99.99,,2013-05-07 05:12:00,
2013-05-07 01:22:00,72.0,62.0,30.00,WNW,294,12.0,14.0,72,-99.99,,,-99.99,,2013-05-07 05:22:00,
2013-05-07 01:32:00,72.0,63.0,29.99,WNW,297,12.0,15.0,74,-99.99,,,-99.99,,2013-05-07 05:32:00,
2013-05-07 01:42:00,72.0,63.0,29.99,WNW,297,12.0,15.0,74,-99.99,,,-99.99,,2013-05-07 05:42:00,
2013-05-07 01:52:00,71.0,63.0,29.99,WNW,291,5.0,17.0,75,-99.99,,,-99.99,,2013-05-07 05:52:00,
2013-05-07 02:02:00,70.0,61.0,29.99,North,0,0.0,0.0,74,-99.99,,,-99.99,,2013-05-07 06:02:00,
2013-05-07 02:12:00,70.0,61.0,29.99,North,0,0.0,0.0,74,-99.99,,,-99.99,,2013-05-07 06:12:00,
2013-05-07 02:22:00,70.0,61.0,29.98,North,0,0.0,0.0,74,-99.99,,,-99.99,,2013-05-07 06:22:00,
2013-05-07 02:32:00,69.0,61.0,29.98,WNW,291,14.0,17.0,76,-99.99,,,-99.99,,2013-05-07 06:32:00,
2013-05-07 02:42:00,69.0,61.0,29.98,WNW,291,14.0,17.0,76,-99.99,,,-99.99,,2013-05-07 06:42:00,
2013-05-07 02:52:00,69.0,62.0,29.98,NW,316,12.0,15.0,78,-99.99,,,-99.99,,2013-05-07 06:52:00,
2013-05-07 03:02:00,69.0,63.0,29.98,North,0,0.0,0.0,80,-99.99,,,-99.99,,2013-05-07 07:02:00,
2013-05-07 03:11:00,69.0,63.0,29.98,North,0,0.0,0.0,80,-99.99,,,-99.99,,2013-05-07 07:11:00,
2013-05-07 03:22:00,68.0,61.0,29.98,North,0,0.0,0.0,77,-99.99,,,-99.99,,2013-05-07 07:22:00,
2013-05-07 03:32:00,68.0,61.0,29.98,NW,319,12.0,15.0,78,-99.99,,,-99.99,,2013-05-07 07:32:00,
2013-05-07 03:42:00,68.0,61.0,29.98,NW,319,12.0,15.0,78,-99.99,,,-99.99,,2013-05-07 07:42:00,
2013-05-07 03:52:00,67.0,61.0,29.97,NNW,346,10.0,14.0,80,-99.99,,,-99.99,,2013-05-07 07:52:00,
2013-05-07 04:02:00,67.0,59.0,29.98,NW,304,11.0,14.0,75,-99.99,,,-99.99,,2013-05-07 08:02:00,
2013-05-07 04:11:00,67.0,59.0,29.98,NW,304,11.0,14.0,75,-99.99,,,-99.99,,2013-05-07 08:11:00,
2013-05-07 04:21:00,67.0,59.0,29.98,North,0,0.0,0.0,76,-99.99,,,-99.99,,2013-05-07 08:21:00,
2013-05-07 04:32:00,66.0,59.0,29.98,North,0,0.0,0.0,77,-99.99,,,-99.99,,2013-05-07 08:32:00,
2013-05-07 04:42:00,66.0,59.0,29.98,North,0,0.0,0.0,77,-99.99,,,-99.99,,2013-05-07 08:42:00,
2013-05-07 04:52:00,66.0,59.0,29.98,NW,321,12.0,17.0,78,-99.99,,,-99.99,,2013-05-07 08:52:00,
2013-05-07 05:01:00,66.0,59.0,29.98,NW,325,11.0,14.0,79,-99.99,,,-99.99,,2013-05-07 09:01:00,
2013-05-07 05:11:00,66.0,59.0,29.98,NW,325,11.0,14.0,79,-99.99,,,-99.99,,2013-05-07 09:11:00,
2013-05-07 05:22:00,66.0,60.0,29.98,NW,322,11.0,15.0,80,-99.99,,,-99.99,,2013-05-07 09:22:00,
2013-05-07 05:33:00,66.0,60.0,29.98,NW,319,12.0,15.0,80,-99.99,,,-99.99,,2013-05-07 09:33:00,
2013-05-07 05:42:00,66.0,60.0,29.98,NW,319,12.0,15.0,80,-99.99,,,-99.99,,2013-05-07 09:42:00,
2013-05-07 05:52:00,66.0,60.0,29.98,NW,321,12.0,17.0,80,-99.99,,,-99.99,,2013-05-07 09:52:00,
2013-05-07 06:03:00,66.0,60.0,29.98,NW,326,15.0,21.0,80,-99.99,,,-99.99,,2013-05-07 10:03:00,
2013-05-07 06:12:00,66.0,60.0,29.98,NW,326,15.0,21.0,80,-99.99,,,-99.99,,2013-05-07 10:12:00,
2013-05-07 06:23:00,66.0,60.0,29.98,NW,323,12.0,19.0,81,-99.99,,,-99.99,,2013-05-07 10:23:00,
2013-05-07 06:32:00,65.0,59.0,29.99,North,0,0.0,0.0,82,-99.99,,,-99.99,,2013-05-07 10:32:00,
2013-05-07 06:42:00,65.0,60.0,29.99,North,0,0.0,0.0,83,-99.99,,,-99.99,,2013-05-07 10:42:00,
2013-05-07 06:52:00,65.0,60.0,29.99,North,0,0.0,0.0,83,-99.99,,,-99.99,,2013-05-07 10:52:00,
2013-05-07 07:02:00,65.0,60.0,30.00,North,0,0.0,0.0,84,-99.99,,,-99.99,,2013-05-07 11:02:00,
2013-05-07 07:12:00,65.0,60.0,30.00,North,0,0.0,0.0,84,-99.99,,,-99.99,,2013-05-07 11:12:00,
2013-05-07 07:22:00,65.0,60.0,30.01,North,0,0.0,0.0,85,-99.99,,,-99.99,,2013-05-07 11:22:00,
2013-05-07 07:32:00,65.0,60.0,30.01,North,0,0.0,0.0,84,-99.99,,,-99.99,,2013-05-07 11:32:00,
2013-05-07 07:42:00,65.0,60.0,30.01,North,0,0.0,0.0,84,-99.99,,,-99.99,,2013-05-07 11:42:00,
2013-05-07 07:52:00,65.0,59.0,30.02,North,0,0.0,0.0,82,-99.99,,,-99.99,,2013-05-07 11:52:00,
2013-05-07 08:02:00,66.0,60.0,30.03,North,0,0.0,0.0,82,-99.99,,,-99.99,,2013-05-07 12:02:00,
2013-05-07 08:11:00,66.0,60.0,30.03,North,0,0.0,0.0,82,-99.99,,,-99.99,,2013-05-07 12:11:00,
2013-05-07 08:21:00,67.0,61.0,30.03,North,0,0.0,0.0,81,-99.99,,,-99.99,,2013-05-07 12:21:00,
2013-05-07 08:32:00,68.0,61.0,30.04,NNE,17,2.0,6.0,78,-99.99,,,-99.99,,2013-05-07 12:32:00,
2013-05-07 08:42:00,68.0,61.0,30.04,NNE,17,2.0,6.0,78,-99.99,,,-99.99,,2013-05-07 12:42:00,
2013-05-07 08:52:00,69.0,61.0,30.04,NNE,31,2.0,5.0,76,-99.99,,,-99.99,,2013-05-07 12:52:00,
2013-05-07 09:02:00,68.0,60.0,30.04,North,359,4.0,8.0,75,-99.99,,,-99.99,,2013-05-07 13:02:00,
2013-05-07 09:11:00,68.0,60.0,30.04,North,359,4.0,8.0,75,-99.99,,,-99.99,,2013-05-07 13:11:00,
2013-05-07 09:22:00,69.0,60.0,30.04,NNW,340,6.0,10.0,72,-99.99,,,-99.99,,2013-05-07 13:22:00,
2013-05-07 09:32:00,69.0,60.0,30.05,NW,315,8.0,12.0,72,-99.99,,,-99.99,,2013-05-07 13:32:00,
2013-05-07 09:42:00,69.0,60.0,30.05,NW,315,8.0,12.0,72,-99.99,,,-99.99,,2013-05-07 13:42:00,
2013-05-07 09:52:00,69.0,60.0,30.05,NNW,333,2.0,10.0,73,-99.99,,,-99.99,,2013-05-07 13:52:00,
2013-05-07 10:02:00,70.0,60.0,30.05,NW,321,5.0,10.0,70,-99.99,,,-99.99,,2013-05-07 14:02:00,
2013-05-07 10:11:00,70.0,60.0,30.05,NW,321,5.0,10.0,70,-99.99,,,-99.99,,2013-05-07 14:11:00,
2013-05-07 10:21:00,71.0,59.0,30.05,WSW,257,4.0,6.0,67,-99.99,,,-99.99,,2013-05-07 14:21:00,
2013-05-07 10:32:00,73.0,61.0,30.06,East,84,1.0,3.0,66,-99.99,,,-99.99,,2013-05-07 14:32:00,
2013-05-07 10:42:00,73.0,61.0,30.06,East,84,1.0,3.0,66,-99.99,,,-99.99,,2013-05-07 14:42:00,
2013-05-07 10:52:00,74.0,60.0,30.06,WNW,287,5.0,9.0,61,-99.99,,,-99.99,,2013-05-07 14:52:00,
2013-05-07 11:01:00,73.0,60.0,30.05,West,281,8.0,12.0,63,-99.99,,,-99.99,,2013-05-07 15:01:00,
2013-05-07 11:12:00,73.0,60.0,30.05,West,281,8.0,12.0,63,-99.99,,,-99.99,,2013-05-07 15:12:00,
2013-05-07 11:21:00,74.0,59.0,30.06,WNW,294,6.0,12.0,59,-99.99,,,-99.99,,2013-05-07 15:21:00,
2013-05-07 11:33:00,74.0,59.0,30.06,West,278,9.0,13.0,60,-99.99,,,-99.99,,2013-05-07 15:33:00,
2013-05-07 11:42:00,74.0,59.0,30.06,West,278,9.0,13.0,60,-99.99,,,-99.99,,2013-05-07 15:42:00,
2013-05-07 11:53:00,74.0,59.0,30.06,West,278,9.0,13.0,60,-99.99,,,-99.99,,2013-05-07 15:53:00,
2013-05-07 12:03:00,75.0,58.0,30.05,West,264,9.0,18.0,56,-99.99,,,-99.99,,2013-05-07 16:03:00,
2013-05-07 12:12:00,75.0,58.0,30.05,West,264,9.0,18.0,56,-99.99,,,-99.99,,2013-05-07 16:12:00,
2013-05-07 12:22:00,75.0,59.0,30.05,WNW,297,13.0,20.0,57,-99.99,,,-99.99,,2013-05-07 16:22:00,
2013-05-07 12:32:00,76.0,58.0,30.04,North,0,0.0,0.0,54,-99.99,,,-99.99,,2013-05-07 16:32:00,
2013-05-07 12:41:00,76.0,58.0,30.04,North,0,0.0,0.0,54,-99.99,,,-99.99,,2013-05-07 16:41:00,
2013-05-07 12:52:00,76.0,58.0,30.04,North,0,0.0,0.0,54,-99.99,,,-99.99,,2013-05-07 16:52:00,
2013-05-07 13:01:00,76.0,57.0,30.04,North,0,0.0,0.0,51,-99.99,,,-99.99,,2013-05-07 17:01:00,
2013-05-07 13:12:00,76.0,57.0,30.04,North,0,0.0,0.0,51,-99.99,,,-99.99,,2013-05-07 17:12:00,
2013-05-07 13:21:00,76.0,57.0,30.03,North,0,0.0,0.0,51,-99.99,,,-99.99,,2013-05-07 17:21:00,
2013-05-07 13:32:00,77.0,57.0,30.03,North,0,0.0,0.0,51,-99.99,,,-99.99,,2013-05-07 17:32:00,
2013-05-07 13:41:00,78.0,57.0,30.03,North,0,0.0,0.0,48,-99.99,,,-99.99,,2013-05-07 17:41:00,
2013-05-07 13:53:00,78.0,57.0,30.03,North,0,0.0,0.0,48,-99.99,,,-99.99,,2013-05-07 17:53:00,
2013-05-07 14:01:00,78.0,62.0,30.03,WSW,240,3.0,10.0,58,-99.99,,,-99.99,,2013-05-07 18:01:00,
2013-05-07 14:11:00,78.0,62.0,30.03,WSW,240,3.0,10.0,58,-99.99,,,-99.99,,2013-05-07 18:11:00,
2013-05-07 14:21:00,78.0,63.0,30.03,North,6,3.0,6.0,60,-99.99,,,-99.99,,2013-05-07 18:21:00,
2013-05-07 14:31:00,78.0,63.0,30.02,SW,219,3.0,7.0,61,-99.99,,,-99.99,,2013-05-07 18:31:00,
2013-05-07 14:42:00,78.0,63.0,30.02,SW,219,3.0,7.0,61,-99.99,,,-99.99,,2013-05-07 18:42:00,
2013-05-07 14:52:00,76.0,63.0,30.01,ESE,121,6.0,11.0,64,-99.99,,,-99.99,,2013-05-07 18:52:00,
2013-05-07 15:02:00,78.0,63.0,30.01,SE,135,8.0,14.0,61,-99.99,,,-99.99,,2013-05-07 19:02:00,
2013-05-07 15:11:00,78.0,63.0,30.01,SE,135,8.0,14.0,61,-99.99,,,-99.99,,2013-05-07 19:11:00,
2013-05-07 15:21:00,76.0,63.0,30.01,SSE,152,7.0,13.0,64,-99.99,,,-99.99,,2013-05-07 19:21:00,
2013-05-07 15:32:00,77.0,63.0,30.00,South,190,5.0,11.0,61,-99.99,,,-99.99,,2013-05-07 19:32:00,
2013-05-07 15:42:00,77.0,63.0,30.00,South,190,5.0,11.0,61,-99.99,,,-99.99,,2013-05-07 19:42:00,
2013-05-07 15:52:00,75.0,62.0,30.00,SE,134,8.0,17.0,65,-99.99,,,-99.99,,2013-05-07 19:52:00,
2013-05-07 16:02:00,78.0,63.0,29.99,South,176,6.0,12.0,60,-99.99,,,-99.99,,2013-05-07 20:02:00,
2013-05-07 16:12:00,78.0,63.0,29.99,South,176,6.0,12.0,60,-99.99,,,-99.99,,2013-05-07 20:12:00,
2013-05-07 16:22:00,79.0,64.0,29.99,South,179,6.0,12.0,60,-99.99,,,-99.99,,2013-05-07 20:22:00,
2013-05-07 16:32:00,78.0,63.0,29.99,SSE,155,6.0,13.0,61,-99.99,,,-99.99,,2013-05-07 20:32:00,
2013-05-07 16:42:00,78.0,63.0,29.99,SSE,155,6.0,13.0,61,-99.99,,,-99.99,,2013-05-07 20:42:00,
2013-05-07 16:52:00,78.0,64.0,29.99,NNW,336,6.0,12.0,62,-99.99,,,-99.99,,2013-05-07 20:52:00,
2013-05-07 17:01:00,77.0,63.0,29.98,SW,224,6.0,14.0,62,-99.99,,,-99.99,,2013-05-07 21:01:00,
2013-05-07 17:11:00,77.0,63.0,29.98,SW,224,6.0,14.0,62,-99.99,,,-99.99,,2013-05-07 21:11:00,
2013-05-07 17:22:00,77.0,64.0,29.98,NNE,28,6.0,10.0,64,-99.99,,,-99.99,,2013-05-07 21:22:00,
2013-05-07 17:32:00,76.0,63.0,29.98,East,94,6.0,10.0,65,-99.99,,,-99.99,,2013-05-07 21:32:00,
2013-05-07 17:42:00,76.0,63.0,29.98,East,94,6.0,10.0,65,-99.99,,,-99.99,,2013-05-07 21:42:00,
2013-05-07 17:53:00,76.0,64.0,29.99,NNE,23,6.0,13.0,67,-99.99,,,-99.99,,2013-05-07 21:53:00,
2013-05-07 18:02:00,76.0,64.0,29.98,SE,124,6.0,13.0,67,-99.99,,,-99.99,,2013-05-07 22:02:00,
2013-05-07 18:13:00,76.0,64.0,29.98,SE,124,6.0,13.0,67,-99.99,,,-99.99,,2013-05-07 22:13:00,
2013-05-07 18:22:00,76.0,-99.9,29.98,ENE,68,6.0,12.0,-999,-99.99,,,-99.99,,2013-05-07 22:22:00,
2013-05-07 18:33:00,76.0,65.0,29.98,North,359,5.0,10.0,69,-99.99,,,-99.99,,2013-05-07 22:33:00,
2013-05-07 18:42:00,76.0,65.0,29.98,North,359,5.0,10.0,69,-99.99,,,-99.99,,2013-05-07 22:42:00,
2013-05-07 18:52:00,76.0,65.0,29.98,NNE,18,6.0,11.0,69,-99.99,,,-99.99,,2013-05-07 22:52:00,
2013-05-07 19:02:00,77.0,66.0,29.98,NE,51,6.0,9.0,69,-99.99,,,-99.99,,2013-05-07 23:02:00,
2013-05-07 19:12:00,77.0,66.0,29.98,NE,51,6.0,9.0,69,-99.99,,,-99.99,,2013-05-07 23:12:00,
2013-05-07 19:21:00,76.0,65.0,29.98,ENE,59,5.0,9.0,70,-99.99,,,-99.99,,2013-05-07 23:21:00,
2013-05-07 19:32:00,76.0,65.0,29.98,NE,56,5.0,11.0,70,-99.99,,,-99.99,,2013-05-07 23:32:00,
2013-05-07 19:42:00,77.0,66.0,29.99,NE,51,5.0,9.0,70,-99.99,,,-99.99,,2013-05-07 23:42:00,
2013-05-07 19:52:00,77.0,66.0,29.99,NE,51,5.0,9.0,70,-99.99,,,-99.99,,2013-05-07 23:52:00,
2013-05-07 20:02:00,76.0,65.0,29.99,West,280,5.0,13.0,70,-99.99,,,-99.99,,2013-05-08 00:02:00,
2013-05-07 20:12:00,76.0,65.0,29.99,West,280,5.0,13.0,70,-99.99,,,-99.99,,2013-05-08 00:12:00,
2013-05-07 20:22:00,77.0,66.0,30.00,East,84,4.0,9.0,70,-99.99,,,-99.99,,2013-05-08 00:22:00,
2013-05-07 20:32:00,77.0,66.0,30.00,SSW,204,5.0,11.0,69,-99.99,,,-99.99,,2013-05-08 00:32:00,
2013-05-07 20:42:00,77.0,57.0,30.01,North,0,0.0,0.0,50,-99.99,,,-99.99,,2013-05-08 00:42:00,
2013-05-07 20:52:00,77.0,57.0,30.01,North,0,0.0,0.0,50,-99.99,,,-99.99,,2013-05-08 00:52:00,
2013-05-07 21:02:00,77.0,56.0,30.02,North,0,0.0,0.0,48,-99.99,,,-99.99,,2013-05-08 01:02:00,
2013-05-07 21:11:00,77.0,56.0,30.02,North,0,0.0,0.0,48,-99.99,,,-99.99,,2013-05-08 01:11:00,
2013-05-07 21:22:00,76.0,55.0,30.03,North,0,0.0,0.0,49,-99.99,,,-99.99,,2013-05-08 01:22:00,
2013-05-07 21:32:00,76.0,56.0,30.03,North,0,0.0,0.0,50,-99.99,,,-99.99,,2013-05-08 01:32:00,
2013-05-07 21:42:00,75.0,56.0,30.03,North,0,0.0,0.0,51,-99.99,,,-99.99,,2013-05-08 01:42:00,
2013-05-07 21:52:00,75.0,56.0,30.03,North,0,0.0,0.0,51,-99.99,,,-99.99,,2013-05-08 01:52:00,
2013-05-07 22:02:00,75.0,56.0,30.04,North,0,0.0,0.0,52,-99.99,,,-99.99,,2013-05-08 02:02:00,
2013-05-07 22:12:00,75.0,56.0,30.04,North,0,0.0,0.0,52,-99.99,,,-99.99,,2013-05-08 02:12:00,
2013-05-07 22:22:00,75.0,57.0,30.05,North,0,0.0,0.0,53,-99.99,,,-99.99,,2013-05-08 02:22:00,
2013-05-07 22:32:00,74.0,56.0,30.05,North,0,0.0,0.0,54,-99.99,,,-99.99,,2013-05-08 02:32:00,
2013-05-07 22:42:00,74.0,56.0,30.06,North,0,0.0,0.0,53,-99.99,,,-99.99,,2013-05-08 02:42:00,
2013-05-07 22:52:00,74.0,56.0,30.06,North,0,0.0,0.0,53,-99.99,,,-99.99,,2013-05-08 02:52:00,
2013-05-07 23:02:00,73.0,56.0,30.06,North,0,0.0,0.0,55,-99.99,,,-99.99,,2013-05-08 03:02:00,
2013-05-07 23:11:00,73.0,56.0,30.06,North,0,0.0,0.0,55,-99.99,,,-99.99,,2013-05-08 03:11:00,
2013-05-07 23:21:00,73.0,57.0,30.06,North,0,0.0,0.0,57,-99.99,,,-99.99,,2013-05-08 03:21:00,
2013-05-07 23:33:00,72.0,57.0,30.06,WNW,293,13.0,21.0,59,-99.99,,,-99.99,,2013-05-08 03:33:00,
2013-05-07 23:43:00,72.0,57.0,30.06,WNW,293,13.0,21.0,59,-99.99,,,-99.99,,2013-05-08 03:43:00,
2013-05-07 23:52:00,72.0,58.0,30.06,WNW,290,12.0,17.0,62,-99.99,,,-99.99,,2013-05-08 03:52:00,